www.pogodaiklimat.ru

Погода и климат >> Архив погоды >> Таиланд >> Lop Buri


ПОГОДА в Lop Buri

  • Прогноз погоды в Lop Buri
  • Монитор погоды в Lop Buri
  • Климат города

АРХИВ ПОГОДЫ в Lop Buri

Время (UTC), дата Ветер
(напр.,м/с)
 
Видим.   Явления Облачность Т
(С)
Тd
(С)
f
(%)
Тe
(С)
Тes
(С)
Комфортность P
(гПа)
Po
(гПа)
Тmin
(С)
Tmax
(С)
R
(мм)
R24
(мм)
S
(см)
09 14.10 ЮВ 3 9000 м дымка {гроза} 8/5 600 м
[Cu med, cong Ac As Cs]
+27.9 +24.7 83 +40 +41 очень
душно
1004.0 1002.7
12 14.10 Ю 1 8000 м дымка {гроза} 10/4 600 м
[Cu med, cong Ac und Cs]
+27.5 +25.1 87 +40 +40 очень
душно
1005.5 1004.2 +32.8
15 14.10 Ю 2 7000 м дымка 10/4 600 м
[Cu Sc Ac und Cs]
+27.0 +25.1 89 +39 +39 очень
душно
1007.2 1005.9
18 14.10 ЮВ 1 7000 м дымка 8/3 600 м
[Sc Ac und Cs]
+26.5 +25.6 95 +39 +39 очень
душно
1006.6 1005.3
21 14.10 ЮВ 2 7000 м дымка 5/3 600 м
[Sc Ac lent Cs]
+25.9 +25.2 96 +37 +37 очень
душно
1005.4 1004.1
00 15.10 ЮВ 1 6000 м дымка 10/4 600 м
[Cu Sc Ac As Cs]
+25.8 +24.8 94 +37 +37 очень
душно
1007.3 1006.0 +25.4
03 15.10 Ю 4 8000 м дымка 8/3 600 м
[Sc Ac und Cs]
+29.6 +25.9 81 +44 +48 опасность
перегрева
1008.6 1007.3
06 15.10 ЮЗ 2 8000 м мгла 8/3 600 м
[Cu med, cong Ac und Cs]
+32.5 +24.7 64 +46 +54 опасность
перегрева
1006.1 1004.8
09 15.10 штиль 0 10 км 6/3 600 м
[Cu med, cong Ac lent Cs]
+33.0 +25.4 64 +47 +51 опасность
перегрева
1004.9 1003.6
12 15.10 штиль 0 8000 м зарница 9/5 600 м
[Cb cap Ac As Cs]
+29.7 +25.0 76 +43 +43 опасность
перегрева
1005.5 1004.2 +33.4
15 15.10 штиль 0 8000 м дымка 8/3 600 м
[Sc Ac As Cs]
+27.1 +24.2 84 +38 +38 очень
душно
1007.9 1006.6
18 15.10 штиль 0 7000 м дымка 8/3 600 м
[Sc Ac und Cs]
+27.0 +24.7 87 +38 +38 очень
душно
1007.3 1006.0
21 15.10 штиль 0 7000 м дымка 8/3 600 м
[Sc Ac und Cs]
+26.9 +25.5 92 +39 +39 очень
душно
1006.0 1004.6
00 16.10 штиль 0 7000 м дымка 8/4 600 м
[Sc Ac und Cs]
+26.6 +25.6 94 +39 +39 очень
душно
1007.3 1006.0 +26.5
03 16.10 ЮВ 5 10 км 8/4 600 м
[Cu hum Ac lent Ci fib]
+30.1 +25.3 76 +44 +47 опасность
перегрева
1009.0 1007.7
06 16.10 штиль 0 10 км 8/4 600 м
[Cu Sc As trans Cs]
+32.3 +24.0 62 +44 +54 опасность
перегрева
1006.0 1004.8
09 16.10 штиль 0 10 км 8/3 600 м
[Cu hum Ac lent Cs]
+32.0 +23.3 60 +43 +46 опасность
перегрева
1004.3 1003.0
12 16.10 штиль 0 8000 м дымка 8/3 600 м
[Sc Ac lent Cs]
+29.6 +25.2 77 +43 +43 опасность
перегрева
1005.8 1004.5 +33.0
15 16.10 штиль 0 8000 м дымка 8/3 600 м
[Cu hum Ac lent Cs]
+28.5 +24.2 78 +40 +40 очень
душно
1008.1 1006.8
18 16.10 штиль 0 8000 м дымка 5/3 600 м
[Cu med, cong Ac lent Cs]
+27.3 +25.3 89 +40 +40 очень
душно
1007.7 1006.4
21 16.10 штиль 0 8000 м дымка 8/3 600 м
[Cu med, cong Ac lent Cs]
+26.6 +24.9 90 +38 +38 очень
душно
1006.3 1004.9
00 17.10 штиль 0 8000 м дымка 9/3 600 м
[Sc Ac As Cs]
+26.0 +24.6 92 +37 +37 очень
душно
1007.7 1006.4 +26.0
03 17.10 Ю 3 9000 м дымка 10/4 600 м
[Cu Sc Ac und Cs]
+29.0 +24.6 77 +41 +44 опасность
перегрева
1009.9 1008.6
06 17.10 ЮЗ 3 9000 м мгла 9/6 600 м
[Cu med, cong Ac und Cs]
+31.7 +23.6 62 +43 +46 опасность
перегрева
1007.6 1006.3
09 17.10 Ю 2 9000 м мгла 9/5 600 м
[Cu med, cong Ac und Cs]
+32.0 +23.3 60 +43 +44 опасность
перегрева
1005.1 1003.8
12 17.10 В 3 8000 м дымка 9/6 600 м
[Cu Sc Ac und Cs]
+28.5 +24.5 79 +40 +40 очень
душно
1007.5 1006.2 +33.1
15 17.10 СВ 2 7000 м дымка 8/4 600 м
[Sc Ac und Cs]
+26.8 +23.4 82 +36 +36 очень
душно
1010.3 1009.0
18 17.10 СВ 1 7000 м дымка 9/4 600 м
[Sc Ac und Cs]
+25.9 +23.1 85 +35 +35 очень
душно
1009.8 1008.5
21 17.10 В 3 7000 м дымка 9/3 600 м
[Sc Ac und Cs]
+25.6 +21.9 80 +33 +33 очень
душно
1008.7 1007.4
00 18.10 В 1 8000 м дымка 10/5 600 м
[Cu Sc Ac und Cs]
+25.5 +22.2 82 +33 +33 очень
душно
1010.8 1009.5 +25.3
03 18.10 В 2 10 км 8/3 600 м
[Sc Ac und Cs]
+28.9 +23.2 71 +39 +44 очень
душно
1006.1 1004.8
06 18.10 СВ 3 10 км 8/4 600 м
[Sc Ac und Cs]
+30.0 +23.5 68 +41 +46 опасность
перегрева
1010.3 1009.0
09 18.10 С 4 10 км 8/4 600 м
[Cu med, cong Ac lent Cs]
+31.6 +23.5 62 +42 +44 опасность
перегрева
1008.5 1007.2
12 18.10 З 2 8000 м в посл. час дождь 8/5 600 м
[Cb cap Ac As Cs]
+27.0 +24.0 84 +37 +37 очень
душно
1010.7 1009.4 +32.1 0.0
15 18.10 С 3 8000 м дымка 6/3 600 м
[Sc Ac lent Cs]
+25.9 +23.1 85 +35 +35 очень
душно
1012.1 1010.7
18 18.10 З 1 7000 м дымка 3/0
[Ci fib]
+25.5 +23.4 88 +34 +34 очень
душно
1011.4 1010.1
21 18.10 С 2 7000 м дымка 4/0
[Cs]
+25.0 +24.1 95 +34 +34 очень
душно
1010.0 1008.7
00 19.10 штиль 0 7000 м дымка 3/0
[Ac lent Ci fib]
+24.7 +23.7 94 +34 +34 очень
душно
1011.5 1010.1 +24.6
03 19.10 СЗ 4 10 км 3/1 600 м
[Cu hum Ci fib]
+30.5 +24.0 68 +42 +49 опасность
перегрева
1013.1 1011.8
06 19.10 С 1 12 км 6/6 600 м
[Cu med, cong Ci fib]
+33.5 +24.7 60 +47 +55 опасность
перегрева
1010.7 1009.4
09 19.10 штиль 0 12 км 4/3 600 м
[Cu hum Ac lent Ci fib]
+32.6 +23.0 57 +43 +47 опасность
перегрева
1008.3 1007.0
12 19.10 штиль 0 8000 м дымка 9/3 600 м
[Cu med, cong Ac lent Cs]
+30.2 +24.5 72 +43 +43 опасность
перегрева
1009.9 1008.6 +33.6
15 19.10 штиль 0 8000 м дымка 9/3 600 м
[Cu med, cong Ac lent Cs]
+28.9 +24.8 79 +41 +41 опасность
перегрева
1012.4 1011.1
18 19.10 штиль 0 8000 м дымка 9/3 600 м
[Cu hum Ac lent Cs]
+27.8 +25.1 85 +40 +40 очень
душно
1012.5 1011.2
21 19.10 штиль 0 8000 м дымка 8/3 600 м
[Cu med, cong Ac lent Cs]
+26.6 +24.1 86 +37 +37 очень
душно
1011.5 1010.2
00 20.10 штиль 0 9000 м дымка 3/1 600 м
[Cu hum Ac lent Ci fib]
+26.5 +24.3 88 +37 +37 очень
душно
1011.9 1010.6 +26.0
03 20.10 З 2 9000 м дымка 6/6 600 м
[Cu med, cong Ac lent Cs]
+32.2 +25.6 68 +47 +52 опасность
перегрева
1013.6 1012.3
06 20.10 СЗ 3 9000 м мгла 8/8 600 м
[Cu med, cong Ac lent Cs]
+34.0 +24.5 58 +47 +50 опасность
перегрева
1010.6 1009.4
09 20.10 ЮВ 3 8000 м гроза, ливневой дождь 8/8 600 м
[Cb cap Ac und Cs]
+27.7 +25.4 87 +40 +41 очень
душно
1009.3 1008.0 12
12 20.10 штиль 0 8000 м дымка {гроза} 5/3 600 м
[Cu med, cong Ac lent Cs]
+27.5 +26.2 93 +42 +42 опасность
перегрева
1009.6 1008.3 +34.3 12
15 20.10 штиль 0 7000 м дымка 5/3 600 м
[Sc Ac lent Cs]
+26.8 +25.9 95 +40 +40 очень
душно
1011.8 1010.5
18 20.10 штиль 0 7000 м дымка 4/1 600 м
[Sc Ac lent Cs]
+26.0 +25.3 96 +38 +38 очень
душно
1011.0 1009.7
21 20.10 штиль 0 7000 м дымка 3/1 600 м
[Sc Ac lent Cs]
+25.7 +25.0 96 +37 +37 очень
душно
1010.1 1008.7
00 21.10 штиль 0 8000 м дымка 3/3 600 м
[Sc Ac lent Cs]
+25.5 +24.8 96 +36 +36 очень
душно
1011.4 1010.0 +25.1
03 21.10 СВ 2 10 км 6/4 600 м
[Cu med, cong Ac lent Cs]
+31.1 +25.9 74 +46 +52 опасность
перегрева
1012.3 1011.0
06 21.10 СЗ 2 12 км 6/4 600 м
[Cu med, cong Ac lent Cs]
+34.0 +24.7 58 +47 +55 опасность
перегрева
1009.4 1008.1

 

Местоположение метеостанции Lop Buri (Таиланд): широта 14.80 долгота 100.61 высота над уровнем моря 11 м.

В архиве по умолчанию представлена погода в Lop Buri за последнюю неделю. Архивные данные за месяц целиком и за предыдущие месяцы, начиная с января 2011 года, Вы можете получить, выбрав интересующий диапазон дат из раскрывающегося списка и нажав кнопку "Ввод!".

Внимание! Время в таблицах - всемирное. Для получения местного времени необходимо прибавить поправку, которая в Lop Buri равна 7 ч.

Смотрите также архив погоды в соседних городах и на ближайших метеорологических станциях:

Погода в Ayutthaya (Таиланд) (33 км)
Погода в Laemchabang (Таиланд) (43 км)
Погода в Saraburi (Таиланд) (46 км)
Погода в Chainat Agromet (Таиланд) (60 км)
Погода в Takfa Agromet (Таиланд) (62 км)
Погода в Suphan Buri (Таиланд) (63 км)
Погода в Pathumthani (Таиланд) (78 км)
Погода в Pakchong Agromet (Таиланд) (79 км)
Погода в Bua Chum (Таиланд) (81 км)
Погода в Uthai Thani (Таиланд) (89 км)

Пояснения к столбцам:

Ветер - указаны скорость ветра в м/с - средняя за 10 мин, порывы в срок и между сроками (в фигурных скобках) и направление, откуда дует ветер: С - северный, СВ - северо-восточный, В - восточный, ЮВ - юго-восточный, Ю - южный, ЮЗ - юго-западный, З - западный, СЗ - северо-западный.
Видимость - горизонтальная дальность видимости в метрах или километрах. При видимости от 1 до 10 км при отсутствии осадков обычно наблюдается дымка, при ухудшении видимости до 1 км и менее - туман. В сухую погоду видимость может ухудшаться дымом, пылью или мглою.
Явления - указаны атмосферные явления, наблюдавшиеся в срок или в последний час перед сроком; фигурными скобками обозначены явления, наблюдавшиеся между сроками (за 1-3 часа до срока); квадратными скобками обозначены град или гололедные отложения с указанием их диаметра в мм.
Облачность - указаны через наклонную черту общая и нижняя облачность в баллах и высота нижней границы облаков в метрах; квадратными скобками обозначены формы облаков: Ci - перистые, Cs - перисто-слоистые, Cc - перисто-кучевые, Ac - высококучевые, As - высокослоистые, Sc - слоисто-кучевые, Ns - слоисто-дождевые, Cu - кучевые, Cb - кучево-дождевые. Подробнее классификацию облаков см. в Атласе облаков (PDF).
T - Температура воздуха - температура, измеренная на высоте 2 м над землей.
Td - Температура точки росы - температура, при понижении до которой содержащийся в воздухе водяной пар достигнет насыщения.
f - Относительная влажность воздуха - влажноcть воздуха, измеренная на высоте 2 м над землей.
Te - Эффективная температура - температура, которую ощущает одетый по сезону человек в тени. Характеристика душности погоды. При расчете учитывается влияние влажности воздуха и скорости ветра на теплоощущения человека.
Tes - Эффективная температура на солнце - температура, которую ощущает человек, с поправкой на солнечный нагрев. Характеристика знойности погоды. Зависит от высоты солнца над горизонтом, облачности и скорости ветра. Ночью, в пасмурную погоду, а также при ветре 12 м/с и более поправка равна нулю.
P - Атмосферное давление - приведенное к уровню моря атмосферное давление.
Po - Атмосферное давление - измеренное на уровне метеостанции атмосферное давление.
Tmin - Минимальная температура - минимум температуры воздуха на высоте 2 м над землей.
Tmax - Максимальная температура - максимум температуры воздуха на высоте 2 м над землей.
R - Количество осадков - Количество выпавших осадков за период времени, мм. При наведении курсора мыши на число - период времени, за который выпало указанное количество осадков.
R24 - Количество осадков - Количество выпавших осадков за 24 часа, мм.
S - Снежный покров - Высота снежного покрова, см. При наведении курсора мыши на число - состояние снежного покрова и степень покрытия местности в баллах.